[Iaude] MPEC M80: 2022 MJ2 [a=2.00,e=0.40,i=1.9,H=23.5]

mpec at marsden.cfa.harvard.edu mpec at marsden.cfa.harvard.edu
Sun Jun 26 19:03:20 EDT 2022


M.P.E.C. 2022-M80                                 Issued 2022 June 26, 23:02 UT

     The Minor Planet Electronic Circulars contain information on unusual
         minor planets and routine data on comets.  They are published
    on behalf of Division F of the International Astronomical Union by the
          Minor Planet Center, Smithsonian Astrophysical Observatory,
                          Cambridge, MA 02138, U.S.A.

             Prepared using the Tamkin Foundation Computer Network

                              MPC at CFA.HARVARD.EDU
            URL https://www.minorplanetcenter.net/    ISSN 1523-6714

                                    2022 MJ2                                    


Observations:
     K22M02J  C2022 05 28.30156 16 15 12.49 -21 44 27.5                VEM080G96
     K22M02J  C2022 05 28.30588 16 15 12.65 -21 44 26.7                VEM080G96
     K22M02J* C2022 06 24.36767616 54 31.755-18 32 11.44         21.28wUEM080F52
     K22M02J  C2022 06 24.37719216 54 32.730-18 32 07.76         21.57wUEM080F52
     K22M02J  C2022 06 24.38672616 54 33.696-18 32 03.75         21.38wUEM080F52
     K22M02J  C2022 06 24.39626416 54 34.668-18 31 59.76         21.25wUEM080F52
     K22M02J  C2022 06 24.49077416 54 44.485-18 31 18.00         20.58GVEM080F52
     K22M02J  C2022 06 24.49141116 54 44.550-18 31 17.91         21.28GVEM080F52
     K22M02J ^C2022 06 25.35547116 56 32.029-18 25 29.28         21.16GVEM080568
     K22M02J ^C2022 06 25.35644916 56 32.130-18 25 28.89         21.14GVEM080568
     K22M02J ^C2022 06 25.35742816 56 32.233-18 25 28.51         21.17GVEM080568
     K22M02J  C2022 06 26.27494316 58 25.505-18 19 29.11         21.0 GVEM080654
     K22M02J  C2022 06 26.29864316 58 28.063-18 19 20.45         20.9 GVEM080654
     K22M02J  C2022 06 26.30850016 58 29.148-18 19 16.05         20.7 GVEM080654
     K22M02J  C2022 06 26.31791216 58 30.165-18 19 12.36         20.7 GVEM080654

Observer details:
568 Mauna Kea.  Observers R. Wainscoat, L. Wells, T. Burdullis.  Measurers R.
    Weryk, R. Wainscoat.  3.6-m Canada-France-Hawaii Telescope + CCD.
654 Table Mountain Observatory, Wrightwood-PHMC.  Observers N. Evans, P. Choi,
    N. Saini, C. Zhai, R. Trahan, M. Shao.  1.0-m Reflector + CCD.
F52 Pan-STARRS 2, Haleakala.  Observers J. Bulger, T. Lowe, A. Schultz, I.
    Smith, K. Chambers, T. Dukes.  Measurers K. Chambers, S. Chastel, T. de
    Boer, J. Fairlamb, H. Gao, M. Huber, C.-C. Lin, E. Magnier, Y.
    Ramanjooloo, R. Wainscoat, R. Weryk.  1.8-m Ritchey-Chretien + CCD.
G96 Mt. Lemmon Survey.  Observer G. J. Leonard.  Measurers B. Gray, D. Rankin,
    F. C. Shelly.  1.5-m reflector + 10K CCD.

Orbital elements:
2022 MJ2                                                 Earth MOID = 0.1892 AU
Epoch 2022 Aug. 9.0 TT = JDT 2459800.5                  Veres                   
M  13.60493              (2000.0)            P               Q                  
n   0.34850955     Peri.   26.34157     +0.09439292     +0.99505272             
a   1.9998293      Node   249.08793     -0.91914025     +0.07515039             
e   0.3974389      Incl.    1.90084     -0.38245416     +0.06498081             
P   2.83           H   23.53          G   0.15           U   8                  
Residuals in seconds of arc
220528 G96  0.2+  0.4+    220624 F52  0.1-  0.1+    220625 568  0.0   0.0
220528 G96  0.2-  0.4-    220624 F52  0.0   0.2+    220626 654  0.2+  0.6+
220624 F52  0.0   0.1+    220624 F52  0.1-  0.0     220626 654  0.1-  0.3-
220624 F52  0.1+  0.0     220625 568  0.0   0.0     220626 654  0.0   0.1+
220624 F52  0.0   0.1+    220625 568  0.0   0.0     220626 654  0.2-  0.1-

Ephemeris:
2022 MJ2                 a,e,i = 2.00, 0.40, 2                   q = 1.2050
Date    TT    R. A. (2000) Decl.     Delta      r    Elong.  Phase     V
2022 05 27    16 13 57.4 -21 51 44   0.2396  1.2527   179.3     0.5    21.0
...
2022 06 11    16 31 26.3 -20 09 06   0.2086  1.2209   169.4     8.8    21.2
...
2022 06 19    16 44 20.8 -19 09 48   0.2009  1.2108   164.4    13.0    21.2
...
2022 06 25    16 55 48.0 -18 27 26   0.1989  1.2064   161.2    15.8    21.3
2022 06 26    16 57 51.1 -18 20 44   0.1989  1.2060   160.7    16.2    21.3
2022 06 27    16 59 56.7 -18 14 10   0.1990  1.2056   160.2    16.6    21.3
...
2022 07 03    17 13 17.7 -17 37 50   0.2014  1.2052   157.4    18.9    21.4
...
2022 07 11    17 32 53.6 -16 58 38   0.2097  1.2091   154.3    21.4    21.6
...
2022 07 26    18 12 17.0 -16 11 43   0.2415  1.2299   149.5    24.8    22.0

M. P. C. Staff               (C) Copyright 2022 MPC           M.P.E.C. 2022-M80




More information about the Iaude mailing list